| time (UTC) | temp F | wind direction | speed knots | gust knots | rain 1hr in | rain 24hr in | rain mn in | humidity % | barometer mb |
| 20260906052306 | 76 | 51 | 0.9 | 1.7 | 0.00 | 0.00 | 0.00 | 89 | 1012.6 |
| 20260906051805 | 76 | 125 | 0.9 | 1.7 | 0.00 | 0.00 | 0.00 | 90 | 1012.6 |
| 20260906051305 | 76 | 287 | 0.9 | 2.6 | 0.00 | 0.00 | 0.00 | 91 | 1013.0 |
| 20260906050805 | 76 | 239 | 0.0 | 2.6 | 0.00 | 0.00 | 0.00 | 91 | 1013.0 |
| 20260906050304 | 76 | 99 | 0.0 | 0.9 | 0.00 | 0.00 | 0.00 | 90 | 1013.0 |
| 20260906045805 | 76 | 224 | 0.0 | 0.0 | 0.00 | 0.00 | 0.00 | 90 | 1013.0 |
| 20260906045306 | 76 | 205 | 0.0 | 0.9 | 0.00 | 0.00 | 0.00 | 90 | 1013.3 |
| 20260906044805 | 76 | 242 | 0.0 | 0.9 | 0.00 | 0.00 | 0.00 | 90 | 1013.0 |
| 20260906044304 | 76 | 77 | 0.0 | 0.9 | 0.00 | 0.00 | 0.00 | 90 | 1013.0 |
| 20260906043805 | 76 | 249 | 0.0 | 0.9 | 0.00 | 0.00 | 0.00 | 91 | 1013.0 |
| 20260906043305 | 76 | 147 | 0.0 | 1.7 | 0.00 | 0.00 | 0.00 | 91 | 1013.0 |
| 20260906042805 | 76 | 121 | 0.0 | 1.7 | 0.00 | 0.00 | 0.00 | 91 | 1013.3 |
| 20260906042306 | 76 | 18 | 0.0 | 0.9 | 0.00 | 0.00 | 0.00 | 91 | 1013.3 |
| 20260906041805 | 76 | 89 | 0.0 | 0.9 | 0.00 | 0.00 | 0.00 | 90 | 1013.0 |
| 20260906041305 | 76 | 269 | 0.0 | 0.9 | 0.00 | 0.00 | 0.00 | 90 | 1013.0 |
| 20260906040805 | 77 | 147 | 0.0 | 0.9 | 0.00 | 0.00 | 0.00 | 90 | 1012.6 |
| 20260906040305 | 76 | 117 | 0.0 | 0.9 | 0.00 | 0.00 | 0.00 | 91 | 1013.0 |
| 20260906035805 | 76 | 333 | 0.0 | 0.9 | 0.00 | 0.00 | 0.00 | 90 | 1013.0 |
| 20260906035306 | 76 | 147 | 0.0 | 0.0 | 0.00 | 0.00 | 0.00 | 90 | 1013.0 |
| 20260906034805 | 76 | 154 | 0.0 | 0.0 | 0.00 | 0.00 | 0.00 | 90 | 1013.0 |
| 20260906034304 | 77 | 154 | 0.0 | 0.0 | 0.00 | 0.00 | 0.00 | 90 | 1013.3 |
| 20260906033805 | 77 | 242 | 0.0 | 0.0 | 0.00 | 0.00 | 0.00 | 91 | 1013.0 |
| 20260906033305 | 77 | 154 | 0.0 | 0.0 | 0.00 | 0.00 | 0.00 | 90 | 1013.0 |
| 20260906032805 | 77 | 166 | 0.0 | 0.9 | 0.00 | 0.00 | 0.00 | 90 | 1013.0 |
| 20260906032306 | 77 | 256 | 0.0 | 0.9 | 0.00 | 0.00 | 0.00 | 91 | 1013.0 |
| 20260906031804 | 77 | 89 | 0.0 | 1.7 | 0.00 | 0.00 | 0.00 | 90 | 1013.0 |
| 20260906031304 | 78 | 122 | 0.0 | 1.7 | 0.00 | 0.00 | 0.00 | 88 | 1013.0 |
| 20260906030804 | 78 | 347 | 0.0 | 0.9 | 0.00 | 0.00 | 0.00 | 88 | 1013.0 |
| 20260906030304 | 78 | 230 | 0.0 | 0.0 | 0.00 | 0.00 | 0.00 | 90 | 1013.0 |
| 20260906025804 | 78 | 113 | 0.0 | 1.7 | 0.00 | 0.00 | 0.00 | 88 | 1013.0 |
| 20260906025306 | 79 | 118 | 0.0 | 1.7 | 0.00 | 0.00 | 0.00 | 86 | 1013.0 |
| 20260906024804 | 79 | 96 | 0.9 | 1.7 | 0.00 | 0.00 | 0.00 | 85 | 1013.0 |
| 20260906024304 | 80 | 124 | 0.0 | 1.7 | 0.00 | 0.00 | 0.00 | 82 | 1013.0 |
| 20260906023805 | 79 | 62 | 0.0 | 1.7 | 0.00 | 0.00 | 0.00 | 85 | 1012.6 |
| 20260906023305 | 78 | 243 | 0.0 | 1.7 | 0.00 | 0.00 | 0.00 | 88 | 1012.6 |
| 20260906022805 | 78 | 8 | 1.7 | 1.7 | 0.00 | 0.00 | 0.00 | 89 | 1012.3 |
| 20260906022307 | 78 | 284 | 0.0 | 1.7 | 0.00 | 0.00 | 0.00 | 89 | 1012.3 |
| 20260906021805 | 79 | 99 | 0.0 | 1.7 | 0.00 | 0.00 | 0.00 | 88 | 1012.3 |
| 20260906021304 | 79 | 108 | 0.9 | 1.7 | 0.00 | 0.00 | 0.00 | 86 | 1012.6 |
| 20260906020804 | 79 | 89 | 0.0 | 0.9 | 0.00 | 0.00 | 0.00 | 85 | 1012.3 |
| 20260906020304 | 79 | 256 | 0.0 | 1.7 | 0.00 | 0.00 | 0.00 | 86 | 1012.3 |
| 20260906015805 | 79 | 297 | 0.0 | 1.7 | 0.00 | 0.00 | 0.00 | 88 | 1012.3 |
| 20260906015306 | 79 | 269 | 0.0 | 1.7 | 0.00 | 0.00 | 0.00 | 89 | 1011.9 |
| 20260906014805 | 79 | 224 | 0.0 | 1.7 | 0.00 | 0.00 | 0.00 | 88 | 1012.3 |
| 20260906014304 | 79 | 12 | 0.0 | 0.9 | 0.00 | 0.00 | 0.00 | 89 | 1011.9 |
| 20260906013805 | 79 | 81 | 0.0 | 0.9 | 0.00 | 0.00 | 0.00 | 88 | 1012.3 |
| 20260906013305 | 80 | 230 | 0.0 | 0.9 | 0.00 | 0.00 | 0.00 | 88 | 1011.9 |
| 20260906012805 | 80 | 242 | 0.0 | 0.9 | 0.00 | 0.00 | 0.00 | 88 | 1011.9 |
| 20260906012306 | 81 | 75 | 0.0 | 1.7 | 0.00 | 0.00 | 0.00 | 85 | 1011.9 |
| 20260906011804 | 81 | 89 | 0.0 | 1.7 | 0.00 | 0.00 | 0.00 | 84 | 1012.3 |
| 20260906011304 | 81 | 98 | 0.0 | 0.9 | 0.00 | 0.00 | 0.00 | 81 | 1011.6 |
| 20260906010804 | 82 | 224 | 0.0 | 1.7 | 0.00 | 0.00 | 0.00 | 82 | 1011.9 |
| 20260906010305 | 82 | 274 | 0.9 | 1.7 | 0.00 | 0.00 | 0.00 | 82 | 1011.6 |
| 20260906005804 | 82 | 225 | 0.0 | 1.7 | 0.00 | 0.00 | 0.00 | 84 | 1011.9 |
| 20260906005306 | 82 | 145 | 0.9 | 1.7 | 0.00 | 0.00 | 0.00 | 82 | 1011.6 |
| 20260906004805 | 82 | 341 | 0.0 | 0.9 | 0.00 | 0.00 | 0.00 | 81 | 1011.6 |
| 20260906004305 | 83 | 303 | 0.0 | 1.7 | 0.00 | 0.00 | 0.00 | 80 | 1011.6 |
| 20260906003804 | 83 | 89 | 0.0 | 1.7 | 0.00 | 0.00 | 0.00 | 80 | 1011.6 |
| 20260906003305 | 84 | 96 | 0.9 | 1.7 | 0.00 | 0.00 | 0.00 | 78 | 1011.6 |
| 20260906002805 | 84 | 256 | 0.0 | 0.9 | 0.00 | 0.00 | 0.00 | 77 | 1011.2 |
| 20260906002306 | 84 | 269 | 0.0 | 0.9 | 0.00 | 0.00 | 0.00 | 76 | 1011.6 |
| 20260906001804 | 84 | 224 | 0.0 | 0.9 | 0.00 | 0.00 | 0.00 | 76 | 1011.6 |
| 20260906001304 | 84 | 209 | 0.0 | 0.9 | 0.00 | 0.00 | 0.00 | 74 | 1011.6 |
| 20260906000805 | 86 | 89 | 0.0 | 0.9 | 0.00 | 0.00 | 0.00 | 74 | 1011.9 |
| 20260906000304 | 87 | 135 | 0.0 | 1.7 | 0.00 | 0.00 | 0.00 | 73 | 1011.6 |
| 20260905235805 | 87 | 179 | 0.9 | 0.9 | 0.00 | 0.00 | 0.00 | 71 | 1011.9 |
| 20260905235306 | 87 | 5 | 0.0 | 0.9 | 0.00 | 0.00 | 0.00 | 70 | 1011.9 |
| 20260905234804 | 88 | 336 | 0.0 | 0.9 | 0.00 | 0.00 | 0.00 | 69 | 1011.9 |
| 20260905234305 | 88 | 297 | 0.0 | 0.9 | 0.00 | 0.00 | 0.00 | 71 | 1011.9 |
| 20260905233804 | 88 | 117 | 0.0 | 0.9 | 0.00 | 0.00 | 0.00 | 70 | 1011.9 |
| 20260905233305 | 88 | 135 | 0.0 | 0.0 | 0.00 | 0.00 | 0.00 | 67 | 1011.9 |
| 20260905232804 | 89 | 44 | 0.0 | 0.9 | 0.00 | 0.00 | 0.00 | 67 | 1011.9 |
| 20260905232306 | 90 | 98 | 0.0 | 0.9 | 0.00 | 0.00 | 0.00 | 65 | 1011.9 |
| 20260905231804 | 90 | 242 | 0.0 | 1.7 | 0.00 | 0.00 | 0.00 | 65 | 1011.9 |
| 20260905231305 | 90 | 89 | 0.0 | 1.7 | 0.00 | 0.00 | 0.00 | 63 | 1011.6 |
| 20260905230804 | 90 | 189 | 0.0 | 1.7 | 0.00 | 0.00 | 0.00 | 63 | 1011.9 |
| 20260905230304 | 89 | 329 | 0.0 | 2.6 | 0.00 | 0.00 | 0.00 | 63 | 1011.6 |
| 20260905225805 | 89 | 149 | 1.7 | 4.3 | 0.00 | 0.00 | 0.00 | 64 | 1011.6 |
| 20260905225306 | 89 | 100 | 0.9 | 4.3 | 0.00 | 0.00 | 0.00 | 63 | 1011.9 |
| 20260905224805 | 91 | 100 | 1.7 | 2.6 | 0.00 | 0.00 | 0.00 | 67 | 1011.6 |
| 20260905224304 | 91 | 16 | 1.7 | 1.7 | 0.00 | 0.00 | 0.00 | 63 | 1011.6 |
| 20260905223804 | 91 | 315 | 0.0 | 0.9 | 0.00 | 0.00 | 0.00 | 62 | 1011.6 |
| 20260905223304 | 91 | 333 | 0.0 | 1.7 | 0.00 | 0.00 | 0.00 | 63 | 1011.9 |
| 20260905222804 | 90 | 322 | 0.0 | 1.7 | 0.00 | 0.00 | 0.00 | 61 | 1011.6 |
| 20260905222306 | 91 | 224 | 0.0 | 3.5 | 0.00 | 0.00 | 0.00 | 63 | 1011.9 |
| 20260905221804 | 91 | 214 | 0.0 | 3.5 | 0.00 | 0.00 | 0.00 | 58 | 1011.9 |
| 20260905221304 | 91 | 209 | 0.0 | 1.7 | 0.00 | 0.00 | 0.00 | 59 | 1011.9 |
| 20260905220804 | 94 | 93 | 0.0 | 0.9 | 0.00 | 0.00 | 0.00 | 57 | 1011.9 |
| 20260905220304 | 94 | 309 | 0.0 | 0.0 | 0.00 | 0.00 | 0.00 | 55 | 1011.9 |
| 20260905215804 | 94 | 44 | 0.0 | 0.9 | 0.00 | 0.00 | 0.00 | 54 | 1011.9 |
| 20260905215306 | 95 | 44 | 0.0 | 0.9 | 0.00 | 0.00 | 0.00 | 51 | 1011.9 |
| 20260905214804 | 94 | 164 | 0.0 | 0.9 | 0.00 | 0.00 | 0.00 | 52 | 1011.9 |
| 20260905214304 | 93 | 209 | 0.0 | 0.9 | 0.00 | 0.00 | 0.00 | 55 | 1011.9 |
| 20260905213804 | 92 | 103 | 0.0 | 1.7 | 0.00 | 0.00 | 0.00 | 58 | 1011.9 |
| 20260905213304 | 92 | 50 | 0.0 | 1.7 | 0.00 | 0.00 | 0.00 | 62 | 1011.9 |
| 20260905212804 | 93 | 54 | 0.9 | 1.7 | 0.00 | 0.00 | 0.00 | 58 | 1011.9 |
| 20260905212306 | 94 | 44 | 0.0 | 1.7 | 0.00 | 0.00 | 0.00 | 57 | 1011.9 |
| 20260905211804 | 95 | 148 | 0.0 | 2.6 | 0.00 | 0.00 | 0.00 | 49 | 1012.3 |
| 20260905211304 | 96 | 222 | 0.0 | 3.5 | 0.00 | 0.00 | 0.00 | 46 | 1011.9 |
| 20260905210805 | 98 | 206 | 2.6 | 5.2 | 0.00 | 0.00 | 0.00 | 47 | 1012.3 |
| 20260905210304 | 98 | 243 | 0.0 | 5.2 | 0.00 | 0.00 | 0.00 | 46 | 1012.3 |
| 20260905205805 | 98 | 278 | 2.6 | 3.5 | 0.00 | 0.00 | 0.00 | 47 | 1011.9 |
| 20260905205306 | 97 | 82 | 0.9 | 3.5 | 0.00 | 0.00 | 0.00 | 46 | 1012.3 |
| 20260905204804 | 96 | 88 | 2.6 | 3.5 | 0.00 | 0.00 | 0.00 | 50 | 1012.3 |
| 20260905204304 | 96 | 196 | 0.9 | 4.3 | 0.00 | 0.00 | 0.00 | 48 | 1012.3 |
| 20260905203804 | 96 | 56 | 2.6 | 4.3 | 0.00 | 0.00 | 0.00 | 49 | 1012.3 |
| 20260905203305 | 96 | 74 | 0.9 | 2.6 | 0.00 | 0.00 | 0.00 | 51 | 1012.3 |
| 20260905202804 | 96 | 70 | 2.6 | 4.3 | 0.00 | 0.00 | 0.00 | 49 | 1012.6 |
| 20260905202306 | 96 | 49 | 1.7 | 4.3 | 0.00 | 0.00 | 0.00 | 49 | 1012.3 |
| 20260905201804 | 98 | 65 | 3.5 | 4.3 | 0.00 | 0.00 | 0.00 | 48 | 1012.6 |
| 20260905201304 | 97 | 184 | 0.9 | 5.2 | 0.00 | 0.00 | 0.00 | 47 | 1012.6 |
| 20260905200804 | 97 | 6 | 3.5 | 5.2 | 0.00 | 0.00 | 0.00 | 47 | 1012.6 |
| 20260905200304 | 97 | 268 | 2.6 | 4.3 | 0.00 | 0.00 | 0.00 | 48 | 1012.6 |
| 20260905195804 | 96 | 323 | 1.7 | 5.2 | 0.00 | 0.00 | 0.00 | 48 | 1013.0 |
| 20260905195306 | 96 | 331 | 0.0 | 6.1 | 0.00 | 0.00 | 0.00 | 47 | 1013.0 |
| 20260905194804 | 96 | 317 | 1.7 | 6.1 | 0.00 | 0.00 | 0.00 | 46 | 1013.0 |
| 20260905194304 | 96 | 350 | 2.6 | 4.3 | 0.00 | 0.00 | 0.00 | 47 | 1013.3 |
| 20260905193803 | 96 | 233 | 0.9 | 4.3 | 0.00 | 0.00 | 0.00 | 47 | 1013.3 |
| 20260905193303 | 96 | 351 | 4.3 | 4.3 | 0.00 | 0.00 | 0.00 | 50 | 1013.7 |
| 20260905192804 | 95 | 122 | 2.6 | 3.5 | 0.00 | 0.00 | 0.00 | 49 | 1013.7 |
| 20260905192306 | 96 | 114 | 1.7 | 3.5 | 0.00 | 0.00 | 0.00 | 51 | 1013.7 |
| 20260905191804 | 96 | 208 | 3.5 | 3.5 | 0.00 | 0.00 | 0.00 | 49 | 1013.7 |
| 20260905191304 | 95 | 229 | 2.6 | 3.5 | 0.00 | 0.00 | 0.00 | 48 | 1014.0 |
| 20260905190804 | 93 | 296 | 1.7 | 2.6 | 0.00 | 0.00 | 0.00 | 54 | 1014.0 |
| 20260905190303 | 92 | 53 | 0.0 | 2.6 | 0.00 | 0.00 | 0.00 | 57 | 1014.0 |
| 20260905185804 | 95 | 40 | 0.9 | 2.6 | 0.00 | 0.00 | 0.00 | 50 | 1014.0 |
| 20260905185305 | 95 | 79 | 1.7 | 7.0 | 0.00 | 0.00 | 0.00 | 50 | 1014.0 |
| 20260905184804 | 95 | 79 | 1.7 | 7.0 | 0.00 | 0.00 | 0.00 | 50 | 1014.4 |
| 20260905184304 | 96 | 332 | 1.7 | 3.5 | 0.00 | 0.00 | 0.00 | 48 | 1014.0 |
| 20260905183803 | 96 | 285 | 2.6 | 3.5 | 0.00 | 0.00 | 0.00 | 48 | 1014.0 |
| 20260905183303 | 95 | 119 | 0.9 | 4.3 | 0.00 | 0.00 | 0.00 | 50 | 1014.4 |
| 20260905182804 | 95 | 83 | 0.0 | 4.3 | 0.00 | 0.00 | 0.00 | 49 | 1014.0 |
| 20260905182305 | 94 | 150 | 0.9 | 4.3 | 0.00 | 0.00 | 0.00 | 49 | 1014.0 |
| 20260905181803 | 94 | 149 | 4.3 | 4.3 | 0.00 | 0.00 | 0.00 | 51 | 1014.4 |
| 20260905181303 | 96 | 180 | 1.7 | 3.5 | 0.00 | 0.00 | 0.00 | 50 | 1014.4 |
| 20260905180804 | 96 | 53 | 0.0 | 2.6 | 0.00 | 0.00 | 0.00 | 51 | 1014.4 |
| 20260905180303 | 96 | 219 | 2.6 | 2.6 | 0.00 | 0.00 | 0.00 | 49 | 1014.4 |
| 20260905175804 | 96 | 219 | 2.6 | 2.6 | 0.00 | 0.00 | 0.00 | 49 | 1014.7 |
| 20260905175306 | 96 | 209 | 0.0 | 2.6 | 0.00 | 0.00 | 0.00 | 48 | 1014.4 |
| 20260905174803 | 96 | 232 | 1.7 | 2.6 | 0.00 | 0.00 | 0.00 | 50 | 1014.4 |
| 20260905174303 | 94 | 190 | 0.0 | 2.6 | 0.00 | 0.00 | 0.00 | 51 | 1014.4 |
| 20260905173803 | 95 | 164 | 1.7 | 1.7 | 0.00 | 0.00 | 0.00 | 50 | 1014.4 |
| 20260905153304 | 91 | 198 | 1.7 | 2.6 | 0.00 | 0.00 | 0.00 | 57 | 1015.8 |
| 20260905152803 | 91 | 198 | 1.7 | 2.6 | 0.00 | 0.00 | 0.00 | 57 | 1015.8 |
| 20260905152306 | 91 | 198 | 1.7 | 2.6 | 0.00 | 0.00 | 0.00 | 57 | 1015.8 |
| 20260905143804 | 87 | 121 | 0.9 | 1.7 | 0.00 | 0.00 | 0.00 | 68 | 1015.8 |
| 20260905143303 | 87 | 121 | 0.9 | 1.7 | 0.00 | 0.00 | 0.00 | 68 | 1015.8 |
| 20260905142804 | 87 | 121 | 0.9 | 1.7 | 0.00 | 0.00 | 0.00 | 68 | 1015.8 |
| 20260905142306 | 86 | 265 | 0.0 | 2.6 | 0.00 | 0.00 | 0.00 | 69 | 1015.8 |
| 20260905141803 | 87 | 170 | 0.9 | 2.6 | 0.00 | 0.00 | 0.00 | 68 | 1015.8 |
| 20260905141303 | 87 | 339 | 1.7 | 2.6 | 0.00 | 0.00 | 0.00 | 67 | 1015.8 |
| 20260905140804 | 87 | 356 | 0.9 | 2.6 | 0.00 | 0.00 | 0.00 | 68 | 1015.8 |
| 20260905140303 | 87 | 328 | 0.9 | 1.7 | 0.00 | 0.00 | 0.00 | 70 | 1015.8 |
| 20260905135803 | 85 | 274 | 0.0 | 0.9 | 0.00 | 0.00 | 0.00 | 73 | 1015.8 |
| 20260905135306 | 85 | 224 | 0.0 | 1.7 | 0.00 | 0.00 | 0.00 | 73 | 1015.8 |
| 20260905134803 | 85 | 226 | 0.0 | 1.7 | 0.00 | 0.00 | 0.00 | 76 | 1015.8 |
| 20260905134303 | 84 | 50 | 0.0 | 1.7 | 0.00 | 0.00 | 0.00 | 74 | 1015.8 |
| 20260905133803 | 84 | 25 | 0.0 | 1.7 | 0.00 | 0.00 | 0.00 | 73 | 1015.8 |
| 20260905133303 | 83 | 63 | 0.0 | 1.7 | 0.00 | 0.00 | 0.00 | 76 | 1016.1 |
| 20260905132803 | 82 | 235 | 0.0 | 1.7 | 0.00 | 0.00 | 0.00 | 77 | 1016.1 |
| 20260905132305 | 82 | 64 | 0.0 | 1.7 | 0.00 | 0.00 | 0.00 | 79 | 1015.8 |
| 20260905131803 | 81 | 104 | 0.0 | 1.7 | 0.00 | 0.00 | 0.00 | 80 | 1015.8 |
| 20260905131303 | 81 | 320 | 0.0 | 1.7 | 0.00 | 0.00 | 0.00 | 79 | 1016.1 |
| 20260905130803 | 81 | 66 | 0.0 | 0.9 | 0.00 | 0.00 | 0.00 | 79 | 1015.8 |
| 20260905130304 | 80 | 255 | 0.0 | 0.9 | 0.00 | 0.00 | 0.00 | 83 | 1015.8 |
| 20260905125803 | 79 | 117 | 0.0 | 1.7 | 0.00 | 0.00 | 0.00 | 84 | 1015.8 |
| 20260905125305 | 78 | 68 | 0.0 | 1.7 | 0.00 | 0.00 | 0.00 | 86 | 1015.8 |
| 20260905124803 | 76 | 224 | 0.0 | 0.9 | 0.00 | 0.00 | 0.00 | 91 | 1015.8 |
| 20260905124303 | 74 | 280 | 0.0 | 0.9 | 0.00 | 0.00 | 0.00 | 94 | 1015.8 |
| 20260905123803 | 74 | 280 | 0.0 | 0.9 | 0.00 | 0.00 | 0.00 | 94 | 1015.8 |
| 20260905123303 | 74 | 276 | 0.0 | 0.9 | 0.00 | 0.00 | 0.00 | 94 | 1015.8 |
| 20260905122803 | 74 | 62 | 0.0 | 0.9 | 0.00 | 0.00 | 0.00 | 94 | 1015.4 |
| 20260905122306 | 73 | 129 | 0.0 | 0.9 | 0.00 | 0.00 | 0.00 | 94 | 1015.4 |
| 20260905121803 | 73 | 217 | 0.0 | 0.9 | 0.00 | 0.00 | 0.00 | 94 | 1015.4 |
| 20260905121303 | 72 | 249 | 0.0 | 1.7 | 0.00 | 0.00 | 0.00 | 94 | 1015.4 |
| 20260905120804 | 72 | 300 | 0.0 | 1.7 | 0.00 | 0.00 | 0.00 | 94 | 1015.8 |
| 20260905120302 | 72 | 107 | 0.0 | 0.9 | 0.00 | 0.00 | 0.00 | 95 | 1015.1 |
| 20260905115803 | 72 | 279 | 0.0 | 0.9 | 0.00 | 0.00 | 0.00 | 95 | 1015.8 |
| 20260905115306 | 71 | 228 | 0.0 | 1.7 | 0.00 | 0.00 | 0.00 | 97 | 1015.4 |
| 20260905114803 | 71 | 142 | 0.0 | 1.7 | 0.00 | 0.00 | 0.00 | 97 | 1015.4 |
| 20260905114303 | 71 | 229 | 0.0 | 0.9 | 0.00 | 0.00 | 0.00 | 97 | 1015.1 |
| 20260905113802 | 71 | 135 | 0.0 | 0.9 | 0.00 | 0.00 | 0.00 | 97 | 1015.4 |
| 20260905113303 | 71 | 101 | 0.0 | 1.7 | 0.00 | 0.00 | 0.00 | 97 | 1014.7 |
| 20260905112803 | 71 | 149 | 0.0 | 1.7 | 0.00 | 0.00 | 0.00 | 97 | 1015.1 |
| 20260905112305 | 71 | 269 | 0.0 | 0.0 | 0.00 | 0.00 | 0.00 | 97 | 1015.1 |
| 20260905111803 | 70 | 102 | 0.0 | 0.0 | 0.00 | 0.00 | 0.00 | 97 | 1015.1 |
| 20260905111303 | 70 | 135 | 0.0 | 0.0 | 0.00 | 0.00 | 0.00 | 97 | 1014.7 |
| 20260905110803 | 70 | 44 | 0.0 | 0.9 | 0.00 | 0.00 | 0.00 | 97 | 1015.1 |
| 20260905110303 | 70 | 236 | 0.0 | 0.9 | 0.00 | 0.00 | 0.00 | 97 | 1014.7 |
| 20260905105803 | 70 | 256 | 0.0 | 0.9 | 0.00 | 0.00 | 0.00 | 97 | 1014.7 |
| 20260905105306 | 71 | 297 | 0.0 | 0.9 | 0.00 | 0.00 | 0.00 | 97 | 1014.7 |
| 20260905104803 | 71 | 89 | 0.0 | 0.9 | 0.00 | 0.00 | 0.00 | 97 | 1014.7 |
| 20260905104303 | 71 | 44 | 0.0 | 0.9 | 0.00 | 0.00 | 0.00 | 97 | 1014.7 |
| 20260905103803 | 71 | 269 | 0.0 | 0.0 | 0.00 | 0.00 | 0.00 | 97 | 1014.4 |
| 20260905103303 | 71 | 102 | 0.0 | 0.9 | 0.00 | 0.00 | 0.00 | 97 | 1014.7 |
| 20260905102803 | 71 | 89 | 0.0 | 0.9 | 0.00 | 0.00 | 0.00 | 97 | 1014.7 |
| 20260905102306 | 71 | 135 | 0.0 | 0.0 | 0.00 | 0.00 | 0.00 | 96 | 1014.4 |
| 20260905101803 | 71 | 135 | 0.0 | 0.0 | 0.00 | 0.00 | 0.00 | 96 | 1014.4 |
| 20260905101303 | 71 | 104 | 0.0 | 0.0 | 0.00 | 0.00 | 0.00 | 96 | 1014.4 |
| 20260905100803 | 71 | 284 | 0.0 | 0.9 | 0.00 | 0.00 | 0.00 | 96 | 1014.4 |
| 20260905100303 | 71 | 104 | 0.0 | 0.9 | 0.00 | 0.00 | 0.00 | 96 | 1014.4 |
| 20260905095803 | 71 | 137 | 0.9 | 0.9 | 0.00 | 0.00 | 0.00 | 96 | 1014.0 |
| 20260905095305 | 71 | 255 | 0.0 | 0.9 | 0.00 | 0.00 | 0.00 | 96 | 1014.4 |
| 20260905094803 | 71 | 235 | 0.0 | 0.0 | 0.00 | 0.00 | 0.00 | 96 | 1014.4 |
| 20260905094303 | 71 | 255 | 0.0 | 0.0 | 0.00 | 0.00 | 0.00 | 96 | 1014.0 |
| 20260905093803 | 71 | 89 | 0.0 | 0.9 | 0.00 | 0.00 | 0.00 | 96 | 1014.0 |
| 20260905093304 | 71 | 158 | 0.0 | 0.9 | 0.00 | 0.00 | 0.00 | 96 | 1014.4 |
| 20260905092803 | 71 | 141 | 0.0 | 0.9 | 0.00 | 0.00 | 0.00 | 96 | 1014.0 |
| 20260905092306 | 71 | 217 | 0.0 | 0.0 | 0.00 | 0.00 | 0.00 | 96 | 1014.0 |
| 20260905091803 | 71 | 255 | 0.0 | 0.9 | 0.00 | 0.00 | 0.00 | 95 | 1014.0 |
| 20260905091303 | 71 | 135 | 0.0 | 0.9 | 0.00 | 0.00 | 0.00 | 96 | 1014.0 |
| 20260905090803 | 71 | 124 | 0.0 | 1.7 | 0.00 | 0.00 | 0.00 | 95 | 1014.0 |
| 20260905090303 | 72 | 114 | 0.0 | 1.7 | 0.00 | 0.00 | 0.00 | 94 | 1014.0 |
| 20260905085803 | 72 | 77 | 0.0 | 1.7 | 0.00 | 0.00 | 0.00 | 94 | 1014.0 |
| 20260905085305 | 72 | 73 | 0.0 | 1.7 | 0.00 | 0.00 | 0.00 | 94 | 1014.0 |
| 20260905084803 | 72 | 17 | 0.9 | 1.7 | 0.00 | 0.00 | 0.00 | 94 | 1014.0 |
| 20260905084303 | 71 | 66 | 0.0 | 0.9 | 0.00 | 0.00 | 0.00 | 95 | 1014.0 |
| 20260905083803 | 71 | 258 | 0.9 | 0.9 | 0.00 | 0.00 | 0.00 | 95 | 1014.0 |
| 20260905083303 | 72 | 129 | 0.0 | 1.7 | 0.00 | 0.00 | 0.00 | 96 | 1014.0 |
| 20260905082803 | 72 | 246 | 0.0 | 1.7 | 0.00 | 0.00 | 0.00 | 95 | 1014.0 |
| 20260905082306 | 72 | 89 | 0.0 | 1.7 | 0.00 | 0.00 | 0.00 | 95 | 1014.0 |
| 20260905081803 | 72 | 99 | 0.9 | 1.7 | 0.00 | 0.00 | 0.00 | 95 | 1014.0 |
| 20260905081303 | 72 | 41 | 0.0 | 1.7 | 0.00 | 0.00 | 0.00 | 95 | 1014.0 |
| 20260905080803 | 72 | 224 | 0.0 | 0.9 | 0.00 | 0.00 | 0.00 | 95 | 1014.0 |
| 20260905080302 | 72 | 72 | 0.0 | 0.9 | 0.00 | 0.00 | 0.00 | 95 | 1014.0 |
| 20260905075803 | 72 | 113 | 0.0 | 0.9 | 0.00 | 0.00 | 0.00 | 95 | 1014.0 |
| 20260905075306 | 72 | 66 | 0.0 | 0.0 | 0.00 | 0.00 | 0.00 | 95 | 1014.0 |
| 20260905074803 | 72 | 230 | 0.0 | 0.9 | 0.00 | 0.00 | 0.00 | 95 | 1014.0 |
| 20260905074303 | 72 | 255 | 0.0 | 0.9 | 0.00 | 0.00 | 0.00 | 95 | 1014.0 |
| 20260905073803 | 72 | 135 | 0.0 | 0.0 | 0.00 | 0.00 | 0.00 | 95 | 1014.0 |
| 20260905073303 | 72 | 269 | 0.0 | 0.0 | 0.00 | 0.00 | 0.00 | 94 | 1014.0 |
| 20260905072803 | 73 | 179 | 0.0 | 0.9 | 0.00 | 0.00 | 0.00 | 95 | 1014.0 |
| 20260905072306 | 73 | 50 | 0.0 | 0.9 | 0.00 | 0.00 | 0.00 | 95 | 1014.0 |
| 20260905071803 | 73 | 124 | 0.0 | 0.0 | 0.00 | 0.00 | 0.00 | 94 | 1014.0 |
| 20260905071303 | 73 | 283 | 0.0 | 0.9 | 0.00 | 0.00 | 0.00 | 95 | 1014.4 |
| 20260905070803 | 73 | 119 | 0.0 | 0.9 | 0.00 | 0.00 | 0.00 | 95 | 1014.0 |
| 20260905070303 | 73 | 246 | 0.0 | 0.9 | 0.00 | 0.00 | 0.00 | 95 | 1014.0 |
| 20260905065803 | 73 | 55 | 0.0 | 0.9 | 0.00 | 0.00 | 0.00 | 95 | 1014.4 |
| 20260905065306 | 73 | 224 | 0.0 | 0.9 | 0.00 | 0.00 | 0.00 | 94 | 1014.4 |
| 20260905064803 | 73 | 62 | 0.0 | 0.9 | 0.00 | 0.00 | 0.00 | 94 | 1014.0 |
| 20260905064303 | 73 | 62 | 0.0 | 1.7 | 0.00 | 0.00 | 0.00 | 94 | 1014.4 |
| 20260905063803 | 73 | 202 | 0.0 | 1.7 | 0.00 | 0.00 | 0.00 | 94 | 1014.4 |
| 20260905063303 | 73 | 230 | 0.0 | 0.9 | 0.00 | 0.00 | 0.00 | 94 | 1014.4 |
| 20260905062803 | 73 | 230 | 0.0 | 0.9 | 0.00 | 0.00 | 0.00 | 94 | 1014.7 |
| 20260905062305 | 73 | 147 | 0.0 | 0.9 | 0.00 | 0.00 | 0.00 | 94 | 1015.1 |
| 20260905061803 | 73 | 269 | 0.0 | 0.9 | 0.00 | 0.00 | 0.00 | 95 | 1014.7 |
| 20260905061303 | 73 | 321 | 0.0 | 0.9 | 0.00 | 0.00 | 0.00 | 96 | 1014.4 |
| 20260905060803 | 73 | 242 | 0.0 | 0.9 | 0.00 | 0.00 | 0.00 | 95 | 1014.7 |
| 20260905060303 | 73 | 117 | 0.0 | 0.0 | 0.00 | 0.00 | 0.00 | 95 | 1014.7 |
| 20260905055803 | 73 | 74 | 0.0 | 0.9 | 0.00 | 0.00 | 0.00 | 95 | 1014.7 |
| 20260905055306 | 73 | 124 | 0.0 | 0.9 | 0.00 | 0.00 | 0.00 | 95 | 1014.7 |
| 20260905054803 | 73 | 129 | 0.0 | 0.9 | 0.00 | 0.00 | 0.00 | 96 | 1015.1 |
| 20260905054302 | 73 | 117 | 0.0 | 0.9 | 0.00 | 0.00 | 0.00 | 96 | 1014.7 |
| 20260905053803 | 73 | 117 | 0.0 | 0.9 | 0.00 | 0.00 | 0.00 | 96 | 1014.7 |
| 20260905053303 | 73 | 269 | 0.0 | 0.9 | 0.00 | 0.00 | 0.00 | 96 | 1014.7 |
| 20260905052803 | 73 | 44 | 0.0 | 0.9 | 0.00 | 0.00 | 0.00 | 96 | 1014.7 |